This demonstration page uses our WeatherBlox Daily Observations layout. Learn more.

Left ArrowRight Arrow

38.20091, -84.87328

Hourly Observations for February 8, 2019

Temp ( °F °C ) Dew Point ( °F °C ) Humidity (%) Winds ( mph kmh ) Pressure ( in mb ) Visibility ( mi km ) Precip ( " mm )
12:11 am 00:11 Cloudy 39 3.9 34 1.1 82 82 NW 9 15 30.05 1018 10 16 0.00 0.00
12:53 am 00:53 Mostly Cloudy 37 2.8 31 -0.6 79 79 W 10 17 30.10 1019 10 16 0.00 0.00
1:01 am 01:01 Partly Cloudy 37 2.8 29 -1.7 73 73 W 12 19 30.15 1021 10 16 0.00 0.00
1:13 am 01:13 Mostly Cloudy 37 2.8 29 -1.7 73 73 W 13 20 30.17 1022 10 16 0.00 0.00
1:53 am 01:53 Cloudy 35 1.7 28 -2.2 76 76 W 14 22 30.17 1022 10 16 0.00 0.00
2:53 am 02:53 Mostly Cloudy 33 0.6 25 -3.9 72 72 W 15 24 30.19 1022 10 16 0.00 0.00
3:53 am 03:53 Cloudy 31 -0.6 22 -5.6 69 69 W 13 20 30.23 1024 10 16 0.00 0.00
4:53 am 04:53 Mostly Cloudy 28 -2.2 19 -7.2 69 69 W 13 20 30.28 1025 10 16 0.00 0.00
5:53 am 05:53 Partly Cloudy 25 -3.9 16 -8.9 69 69 W 10 17 30.32 1027 10 16 0.00 0.00
6:28 am 06:28 Mostly Cloudy 24 -4.4 16 -8.9 71 71 WNW 12 19 30.40 1029 10 16 0.00 0.00
6:53 am 06:53 Mostly Cloudy 24 -4.4 15 -9.4 68 68 W 13 20 30.37 1029 10 16 0.00 0.00
7:53 am 07:53 Cloudy 23 -5 15 -9.4 72 72 W 7 11 30.42 1030 10 16 0.00 0.00
8:53 am 08:53 Cloudy 23 -5 14 -10 68 68 W 14 22 30.46 1032 10 16 0.00 0.00
9:53 am 09:53 Mostly Cloudy 24 -4.4 13 -10.6 62 62 W 14 22 30.50 1033 10 16 0.00 0.00
10:28 am 10:28 Partly Cloudy 25 -3.9 12 -11.1 58 58 WNW 12 19 30.54 1034 10 16 0.00 0.00
10:53 am 10:53 Partly Cloudy 26 -3.3 13 -10.6 57 57 W 10 17 30.53 1034 10 16 0.00 0.00
11:05 am 11:05 Mostly Cloudy 26 -3.3 15 -9.4 63 63 WSW 10 17 30.56 1035 10 16 0.00 0.00
11:49 am 11:49 Partly Cloudy 27 -3 12 -11 54 54 WNW 13 20 30.58 1036 10 16 0.00 0.00
11:53 am 11:53 Partly Cloudy 26 -3.3 12 -11.1 55 55 W 12 19 30.55 1035 10 16 0.00 0.00
12:53 pm 12:53 Partly Cloudy 29 -1.7 15 -9.4 56 56 WSW 13 20 30.54 1034 10 16 0.00 0.00
1:53 pm 13:53 Mostly Cloudy 30 -1.1 17 -8.3 58 58 WSW 10 17 30.54 1034 10 16 0.00 0.00
2:53 pm 14:53 Mostly Sunny 31 -0.6 14 -10 49 49 WNW 12 19 30.54 1034 10 16 0.00 0.00
3:53 pm 15:53 Mostly Sunny 31 -0.6 14 -10 49 49 NW 8 13 30.55 1035 10 16 0.00 0.00
4:53 pm 16:53 Mostly Sunny 29 -1.7 13 -10.6 51 51 WNW 9 15 30.58 1035 10 16 0.00 0.00
5:53 pm 17:53 Sunny 29 -1.7 13 -10.6 51 51 WNW 8 13 30.60 1036 10 16 0.00 0.00
6:53 pm 18:53 Clear 27 -2.8 13 -10.6 55 55 NW 7 11 30.63 1037 10 16 0.00 0.00
7:53 pm 19:53 Clear 25 -3.9 12 -11.1 58 58 WNW 7 11 30.67 1039 10 16 0.00 0.00
8:53 pm 20:53 Clear 24 -4.4 12 -11.1 60 60 WNW 6 9 30.71 1040 10 16 0.00 0.00
9:53 pm 21:53 Clear 23 -5 12 -11.1 63 63 NW 8 13 30.72 1040 10 16 0.00 0.00
10:53 pm 22:53 Clear 22 -5.6 12 -11.1 66 66 NW 7 11 30.73 1041 10 16 0.00 0.00
11:53 pm 23:53 Clear 21 -6.1 12 -11.1 68 68 WNW 3 6 30.76 1042 10 16 0.00 0.00

Powered by AerisWeather